DMSP 5D-2 F11 DEB, 29077

Orbit data source: Space-Track

DMSP 5D-2 F11 DEB, 29077 is space debris in SSO originally from a launch on Thu, 28 Nov 1991 UTC launched from the Air Force Western Test Range (AFWTR). Debris objects in space refer to the collection of defunct objects orbiting the Earth. Examples of debris include non-operational satellites, rocket bodies, and fragments generated from explosions, collisions, or faulty payload assembly.

Loading next visibility...
Identifier
29077, 1991-082BY
Orbit
SSO
Country
Flag of USUS
Related business
Manufacturer
Unknown
Mission
Spacecraft
Bus & Motor
Unknown
Mass
Unknown
Launch date (UTC)
1991-11-28 (34 years ago)
Launch vehicle
Unknown
Launch site
Air Force Western Test Range (AFWTR)
Object type
Payload
Rocket body
Debris
Shape & HBR
Unknown shape, 0.1 m
Radar Cross Section
Small (<0.1 m²)

Expand to show TLE details & history
Last TLE update: 1 day ago

TLE from 1 day ago
0 DMSP 5D-2 F11 DEB
1 29077U 91082BY  25349.32544973  .00009209  00000-0  23411-2 0  9998
2 29077  98.6921 127.4383 0054511   7.9346 352.2696 14.50040679 99585
Epoch: 2025-12-15T07:48Z
TLE epoch observation values (Epoch: 2025-12-15T07:48:38.856Z)
Latitude
-0.00012°
Longitude
-73.94921°
Altitude
690.097 km
Speed
7.532 km/s
True Right ascension
08h 29m 45s
True Declination
0° 00' 00"
Sunlit
Object was in full shadow at epoch
Visualization orbit readout
Latitude
Unknown
Longitude
Unknown
Altitude
Unknown
Speed
Unknown
Apparent Right ascension
Unknown
Apparent Declination
Unknown
Sunlit
N/A
Visualization observer readout
Local Sidereal Time
12:45:38
Azimuth
Unknown
Elevation
Unknown
Doppler factor
Unknown
Orbital elements
Apogee altitude
761.34 km
Perigee altitude
683.926 km
Semi-major axis
7,100.77 km
Eccentricity
0.00545
Inclination
98.6921°
RAAN
127.4383°
Arg. of periapsis
7.9346°
True anomaly
352.18501°
Mean anomaly
352.2696°
Eccentric anomaly
352.22736°
Mean motion
3.62731 °/min
Orbital period
99.25 mins
BSTAR
0.0023411

Documentation

Showing up to 5 results
|